[[{"header":{"parameterUnit":"m.s-1","parameterCategory":1,"la1":30.2991,"la2":30.254,"lo1":-89.0895,"lo2":-89.0444,"dy":0.0017,"dx":0.0017,"nx":28,"ny":28,"refTime":"2024-03-06T09:00:00:Z","depth":0,"parameterNumber":2,"parameterNumberName":"U-component_of_WINDS"},"data":[0,0,0,0,0,0,0,0,0,0,0,0,0,0,0,0,0,0,0,0,0,0,0,0,0,0,0,0,0,0,0,0,0,0,0,0,0,0,0,0,0,0,0,0,0,0,0,0,0,0,0,0,0,0,0,0,0,0,-2.8935,-2.8935,0,-2.8951,-2.8951,-2.8952,-2.8896,-2.8895,-2.8893,-2.8892,-2.8912,-2.8915,-2.8917,0,0,0,0,0,0,0,0,0,0,0,0,0,-2.8861,-2.8863,-2.8935,-2.8936,-2.8936,-2.8951,-2.8951,-2.8952,-2.8897,-2.8895,-2.8893,-2.8891,-2.8912,-2.8914,-2.8917,0,0,0,0,0,0,0,0,0,0,0,0,0,-2.8887,-2.8864,-2.8935,-2.891,-2.8908,-2.8951,-2.8951,-2.8952,-2.8897,-2.8895,-2.8892,-2.889,-2.8911,-2.8914,-2.8917,-2.8987,0,0,-2.8927,-2.8928,0,0,0,0,0,0,0,0,-2.8886,-2.889,-2.8914,-2.8912,-2.891,-2.8919,-2.8933,-2.8964,-2.8898,-2.8901,-2.8891,-2.8889,-2.8917,-2.892,-2.8928,-2.8988,-2.8989,-2.8927,-2.8929,-2.893,-2.8931,0,0,0,0,0,0,0,-2.8884,-2.8889,-2.8942,-2.8914,-2.8912,-2.8899,-2.89,-2.8938,-2.8923,-2.8901,-2.8897,-2.8899,-2.8915,-2.8925,-2.8928,-2.8989,-2.8927,-2.893,-2.8932,-2.8933,-2.9107,-2.9109,0,0,0,0,0,0,-2.8885,-2.8888,-2.8941,-2.8942,-2.8891,-2.8903,-2.8904,-2.8919,-2.8923,-2.8921,-2.8901,-2.8897,-2.8921,-2.8925,-2.8929,-2.9011,-2.893,-2.8933,-2.8935,-2.9104,-2.9107,-2.911,0,0,0,0,0,0,-2.8884,-2.889,-2.8941,-2.8914,-2.8919,-2.8906,-2.8924,-2.892,-2.893,-2.8923,-2.892,-2.8914,-2.8919,-2.8924,-2.8972,-2.9011,-2.8935,-2.8938,-2.9101,-2.9105,-2.9109,-2.9176,0,0,0,0,0,0,-2.8882,-2.889,-2.8916,-2.8915,-2.8921,-2.8983,-2.8926,-2.8922,-2.8935,-2.8929,-2.8934,-2.8933,-2.8918,-2.8968,-2.8976,-2.9014,-2.894,-2.9097,-2.9103,-2.9108,-2.917,-2.9181,-2.9191,0,0,0,0,0,-2.8879,-2.8935,-2.8917,-2.8924,-2.8952,-2.8985,-2.8989,-2.8969,-2.8938,-2.8964,-2.896,-2.8932,-2.9005,-2.8973,-2.8982,-2.9021,-2.9095,-2.9101,-2.9107,-2.9165,-2.9179,-2.9191,0,0,0,0,0,0,-2.8942,-2.8934,-2.8915,-2.8971,-2.8979,-2.8976,-2.9008,-2.8985,-2.9003,-2.8997,-2.8973,-2.8975,-2.9028,-2.9029,-2.8994,-2.9089,-2.9045,-2.9053,-2.9086,-2.9099,-2.911,-2.9109,-2.8943,0,0,0,0,0,-2.8962,-2.8988,-2.898,-2.9031,-2.9036,-2.9022,-2.9035,-2.9019,-2.9027,-2.9031,-2.903,-2.904,-2.9065,-2.9082,-2.9105,-2.9169,-2.917,-2.9201,-2.9211,-2.922,-2.9228,-2.9263,-2.9276,-2.913,-2.913,-2.913,0,0,-2.9005,-2.9004,-2.9022,-2.9044,-2.9048,-2.9077,-2.9025,-2.9058,-2.9079,-2.9036,-2.9081,-2.9081,-2.9091,-2.9147,-2.9172,-2.915,-2.9268,-2.9228,-2.9235,-2.9238,-2.927,-2.9284,-2.9297,-2.9134,-2.9134,-2.9133,0,0,-2.9097,-2.9098,-2.9141,-2.9146,-2.9152,-2.9142,-2.9152,-2.9152,-2.915,-2.9194,-2.9163,-2.9189,-2.9232,-2.924,-2.925,-2.9345,-2.9321,-2.9353,-2.9409,-2.9444,-2.9455,-2.9465,-2.95,-2.9513,-2.936,-2.9361,-2.9361,0,-2.915,-2.919,-2.9166,-2.9201,-2.9212,-2.9172,-2.9216,-2.9222,-2.9237,-2.9246,-2.922,-2.9273,-2.9277,-2.9336,-2.9359,-2.9368,-2.938,-2.9353,-2.9455,-2.9465,-2.9474,-2.9507,-2.952,-2.9364,-2.9364,-2.9364,-2.9363,0,-2.9255,-2.9284,-2.9318,-2.9331,-2.9345,-2.9384,-2.9367,-2.9385,-2.9368,-2.9361,-2.9407,-2.941,-2.9432,-2.9445,-2.9429,-2.9501,-2.9487,-2.9459,-2.9414,-2.9493,-2.9523,-2.9535,-2.937,-2.9369,-2.9368,-2.9367,0,0,-2.9389,-2.9387,-2.94,-2.9405,-2.9409,-2.9431,-2.9469,-2.9489,-2.9506,-2.9517,-2.9549,-2.9586,-2.9559,-2.9571,-2.9555,-2.9585,-2.9661,-2.9553,-2.9553,-2.9574,-2.9742,-2.9764,-2.9779,-2.9644,-2.9646,-2.9648,-2.9741,0,-2.948,-2.9542,-2.9521,-2.9586,-2.9612,-2.9575,-2.9608,-2.9614,-2.9609,-2.9632,-2.9626,-2.9653,-2.9615,-2.9622,-2.965,-2.9646,-2.9694,-2.9638,-2.9675,-2.9677,-2.9675,-2.9794,-2.9818,-2.9906,-2.9753,-2.9755,-2.9756,0,-2.9595,-2.9609,-2.9676,-2.9674,-2.9685,-2.9715,-2.9732,-2.9753,-2.9761,-2.9754,-2.9767,-2.9745,-2.9783,-2.9737,-2.979,-2.9752,-2.9766,-2.9766,-2.9769,-2.9773,-2.9722,-2.9803,-2.9933,-2.9947,-2.9775,-2.9773,-2.9772,0,-2.9687,-2.9722,-2.9767,-2.9772,-2.9772,-2.9794,-2.9795,-2.9799,-2.9813,-2.9828,-2.9837,-2.9857,-2.9869,-2.9886,-2.987,-2.9838,-2.9926,-2.9879,-2.9923,-2.9924,-2.9945,-2.9944,-3.0081,-2.9952,-2.9951,-2.9951,-2.9951,0,-2.9792,-2.9834,-2.9808,-2.9835,-2.9882,-2.9858,-2.9905,-2.9902,-2.9906,-2.9934,-2.9902,-2.9929,-2.9906,-2.9931,-2.992,-2.9966,-2.9971,-2.9968,-2.9965,-2.9972,-2.9972,-2.9981,-2.9975,-2.9955,-2.9954,-2.9953,-2.9952,0,-2.9903,-2.9887,-2.9933,-2.9928,-2.9928,-2.9963,-2.9959,-2.9985,-2.9977,-3.0012,-3.0019,-3.0006,-3.0034,-3.0019,-3.0049,-3.0041,-3.0101,-3.0088,-3.0098,-3.0095,-3.0141,-3.0137,-3.0289,-3.0308,-3.0166,-3.0167,-3.0169,0,-2.9971,-3.0003,-3.0001,-3.0016,-3.0019,-3.0044,-3.0057,-3.0034,-3.005,-3.006,-3.0085,-3.011,-3.0128,-3.0175,-3.0169,-3.0191,-3.018,-3.0232,-3.0184,-3.019,-3.0182,-3.0181,-3.0185,-3.0242,-3.0244,-3.0245,-3.0246,0,-3.0095,-3.0085,-3.0104,-3.0121,-3.0138,-3.015,-3.016,-3.0175,-3.0152,-3.0171,-3.0198,-3.0213,-3.0241,-3.0267,-3.0286,-3.0289,-3.0265,-3.0261,-3.0273,-3.0281,-3.0286,-3.0285,-3.0126,-3.0258,-3.0257,-3.0256,-3.0256,-3.0255,-3.0187,-3.0214,-3.0216,-3.0239,-3.0244,-3.0254,-3.0278,-3.0272,-3.0293,-3.0314,-3.03,-3.0332,-3.0339,-3.0361,-3.0367,-3.0393,-3.0373,-3.039,-3.0394,-3.0399,-3.0405,-3.028,-3.0397,-3.0396,-3.0396,-3.0396,-3.0395,0,-3.031,-3.031,-3.0331,-3.0345,-3.0363,-3.0336,-3.0346,-3.0364,-3.0392,-3.0399,-3.0418,-3.0449,-3.0473,-3.0469,-3.0492,-3.0513,-3.0503,-3.052,-3.0519,-3.052,-3.0422,-3.041,-3.0528,-3.0528,-3.0528,-3.0528,-3.0528,-3.0528,-3.0376,-3.0419,-3.041,-3.0456,-3.0455,-3.0485,-3.0493,-3.0503,-3.0508,-3.0544,-3.0564,-3.056,-3.0563,-3.0585,-3.0607,-3.0605,-3.0615,-3.0637,-3.0632,-3.054,-3.0527,-3.0515,-3.0503,-3.0639,-3.0639,-3.0728,-3.0729,-3.0729]},{"header":{"parameterUnit":"m.s-1","parameterCategory":1,"la1":30.2991,"la2":30.254,"lo1":-89.0895,"lo2":-89.0444,"dy":0.0017,"dx":0.0017,"nx":28,"ny":28,"refTime":"2024-03-06T09:00:00:Z","depth":0,"parameterNumber":3,"parameterNumberName":"V-component_of_WINDS"},"data":[0,0,0,0,0,0,0,0,0,0,0,0,0,0,0,0,0,0,0,0,0,0,0,0,0,0,0,0,0,0,0,0,0,0,0,0,0,0,0,0,0,0,0,0,0,0,0,0,0,0,0,0,0,0,0,0,0,0,-0.9679,-0.9679,0,-0.9639,-0.9639,-0.9638,-0.9611,-0.9611,-0.961,-0.961,-0.9567,-0.9566,-0.9565,0,0,0,0,0,0,0,0,0,0,0,0,0,-0.973,-0.9729,-0.9679,-0.9679,-0.9678,-0.9639,-0.9639,-0.9638,-0.9611,-0.9611,-0.961,-0.961,-0.9567,-0.9566,-0.9565,0,0,0,0,0,0,0,0,0,0,0,0,0,-0.9701,-0.9729,-0.9679,-0.966,-0.9658,-0.964,-0.9639,-0.9638,-0.9611,-0.9611,-0.961,-0.961,-0.9568,-0.9566,-0.9565,-0.9562,0,0,-0.9561,-0.956,0,0,0,0,0,0,0,0,-0.9702,-0.9699,-0.9663,-0.9661,-0.9659,-0.963,-0.9641,-0.9613,-0.9611,-0.9629,-0.961,-0.961,-0.9588,-0.9585,-0.9578,-0.956,-0.9558,-0.956,-0.956,-0.9559,-0.9559,0,0,0,0,0,0,0,-0.9704,-0.97,-0.9663,-0.9663,-0.966,-0.9653,-0.9648,-0.9635,-0.961,-0.9627,-0.9625,-0.9621,-0.9587,-0.9579,-0.9577,-0.9558,-0.956,-0.9559,-0.9558,-0.9558,-0.9535,-0.9535,0,0,0,0,0,0,-0.971,-0.9702,-0.9665,-0.9662,-0.968,-0.9652,-0.9647,-0.9639,-0.9611,-0.9606,-0.9621,-0.962,-0.9582,-0.9579,-0.9575,-0.957,-0.9559,-0.9558,-0.9557,-0.9535,-0.9535,-0.9535,0,0,0,0,0,0,-0.9711,-0.9707,-0.9666,-0.9682,-0.9676,-0.9651,-0.9643,-0.9639,-0.9631,-0.9606,-0.9601,-0.9618,-0.9582,-0.9577,-0.9566,-0.9568,-0.9557,-0.9556,-0.9535,-0.9535,-0.9535,-0.9559,0,0,0,0,0,0,-0.9712,-0.9707,-0.9706,-0.9682,-0.9675,-0.9658,-0.9643,-0.9638,-0.9629,-0.9627,-0.9602,-0.9598,-0.9581,-0.9568,-0.9564,-0.9566,-0.9555,-0.9534,-0.9535,-0.9535,-0.9558,-0.956,-0.9562,0,0,0,0,0,-0.9714,-0.9714,-0.9706,-0.9702,-0.9674,-0.9658,-0.9655,-0.9636,-0.963,-0.9628,-0.9612,-0.9599,-0.9568,-0.9567,-0.9563,-0.9564,-0.9534,-0.9535,-0.9535,-0.9557,-0.956,-0.9562,0,0,0,0,0,0,-0.9739,-0.9711,-0.9702,-0.9694,-0.9679,-0.9654,-0.9651,-0.964,-0.9625,-0.9624,-0.9601,-0.9595,-0.9586,-0.9574,-0.9573,-0.9559,-0.9549,-0.9549,-0.9568,-0.957,-0.9572,-0.9575,-0.9553,0,0,0,0,0,-0.9744,-0.9734,-0.971,-0.9705,-0.9698,-0.9676,-0.9669,-0.9656,-0.9639,-0.9632,-0.9615,-0.9599,-0.9585,-0.9577,-0.9564,-0.9556,-0.955,-0.9555,-0.9557,-0.9559,-0.9559,-0.9554,-0.9555,-0.9537,-0.9537,-0.9537,0,0,-0.9753,-0.9736,-0.9731,-0.971,-0.9696,-0.9686,-0.9671,-0.9661,-0.9653,-0.9631,-0.9619,-0.9606,-0.9586,-0.9576,-0.9571,-0.9566,-0.9562,-0.956,-0.9561,-0.956,-0.9554,-0.9556,-0.9558,-0.9538,-0.9538,-0.9538,0,0,-0.9764,-0.9751,-0.9746,-0.9733,-0.9714,-0.9699,-0.9698,-0.9675,-0.9665,-0.9653,-0.9636,-0.9626,-0.9604,-0.959,-0.9581,-0.9588,-0.9575,-0.9584,-0.9595,-0.959,-0.9591,-0.9592,-0.9594,-0.9596,-0.9584,-0.9584,-0.9584,0,-0.9778,-0.9763,-0.9744,-0.9736,-0.9726,-0.9706,-0.97,-0.9689,-0.9665,-0.9659,-0.9653,-0.9625,-0.961,-0.9597,-0.9599,-0.9592,-0.9589,-0.9586,-0.9593,-0.9594,-0.9594,-0.9596,-0.9597,-0.9585,-0.9585,-0.9585,-0.9585,0,-0.9781,-0.977,-0.9768,-0.9747,-0.9738,-0.9731,-0.971,-0.9703,-0.9691,-0.9677,-0.9664,-0.9646,-0.9628,-0.9624,-0.9612,-0.961,-0.9607,-0.9597,-0.9587,-0.9598,-0.9599,-0.9599,-0.9587,-0.9586,-0.9586,-0.9586,0,0,-0.9806,-0.9775,-0.9775,-0.9765,-0.9742,-0.9734,-0.9725,-0.9709,-0.9703,-0.9687,-0.9679,-0.9661,-0.9652,-0.9641,-0.9627,-0.9623,-0.963,-0.9614,-0.9613,-0.9617,-0.9625,-0.9632,-0.9633,-0.9621,-0.9621,-0.9621,-0.9627,0,-0.9814,-0.9799,-0.9782,-0.9772,-0.9762,-0.9743,-0.9735,-0.972,-0.9707,-0.9696,-0.9681,-0.9669,-0.9658,-0.9651,-0.9646,-0.963,-0.9631,-0.9629,-0.9613,-0.9612,-0.9618,-0.9634,-0.9641,-0.9647,-0.9627,-0.9627,-0.9627,0,-0.9821,-0.9807,-0.9797,-0.9775,-0.977,-0.9764,-0.9748,-0.9738,-0.972,-0.9711,-0.9699,-0.9684,-0.9674,-0.9665,-0.965,-0.9649,-0.9641,-0.9632,-0.9632,-0.9629,-0.962,-0.9631,-0.9649,-0.965,-0.9628,-0.9628,-0.9628,0,-0.984,-0.9819,-0.981,-0.9803,-0.9777,-0.9773,-0.9762,-0.9744,-0.9735,-0.9721,-0.9715,-0.9699,-0.969,-0.9678,-0.9659,-0.9654,-0.9646,-0.9635,-0.9637,-0.9637,-0.9635,-0.9636,-0.9652,-0.9631,-0.9631,-0.9631,-0.9631,0,-0.985,-0.9845,-0.9819,-0.9813,-0.9806,-0.9786,-0.978,-0.9767,-0.9751,-0.9742,-0.9724,-0.9716,-0.9692,-0.9681,-0.9666,-0.9656,-0.9652,-0.9644,-0.964,-0.9645,-0.9646,-0.9639,-0.9638,-0.9631,-0.9631,-0.9631,-0.9631,0,-0.987,-0.9853,-0.9842,-0.9819,-0.9813,-0.9809,-0.9789,-0.9782,-0.9768,-0.9757,-0.9753,-0.9731,-0.9717,-0.9697,-0.9677,-0.9667,-0.9658,-0.9652,-0.9665,-0.9662,-0.9665,-0.9665,-0.9676,-0.9677,-0.9657,-0.9657,-0.9657,0,-0.9878,-0.9873,-0.985,-0.9843,-0.9833,-0.9822,-0.9813,-0.9794,-0.9785,-0.9765,-0.9761,-0.9745,-0.9732,-0.9711,-0.9692,-0.9676,-0.9669,-0.9675,-0.9667,-0.9672,-0.9669,-0.9669,-0.9669,-0.9676,-0.9677,-0.9677,-0.9677,0,-0.9893,-0.9885,-0.9873,-0.9858,-0.9848,-0.9836,-0.9822,-0.9817,-0.9795,-0.9786,-0.9772,-0.9762,-0.9741,-0.9726,-0.9708,-0.9696,-0.9682,-0.968,-0.9679,-0.9684,-0.9692,-0.9687,-0.9669,-0.968,-0.9679,-0.9679,-0.9679,-0.9679,-0.9906,-0.9901,-0.9884,-0.9872,-0.986,-0.9848,-0.984,-0.9826,-0.9814,-0.9797,-0.9785,-0.9772,-0.9754,-0.9728,-0.9717,-0.9706,-0.97,-0.9699,-0.9699,-0.9699,-0.9701,-0.9694,-0.9702,-0.9702,-0.9702,-0.9702,-0.9702,0,-0.992,-0.9908,-0.9897,-0.9879,-0.9869,-0.9859,-0.9843,-0.9835,-0.9824,-0.9809,-0.9796,-0.978,-0.9765,-0.9746,-0.973,-0.9724,-0.9718,-0.9721,-0.9721,-0.9718,-0.9707,-0.9709,-0.9726,-0.9726,-0.9726,-0.9726,-0.9726,-0.9726,-0.9926,-0.9917,-0.9907,-0.9891,-0.9879,-0.9866,-0.9858,-0.9847,-0.9834,-0.9817,-0.9806,-0.9793,-0.9776,-0.9759,-0.9745,-0.9739,-0.9734,-0.9739,-0.9731,-0.9721,-0.9719,-0.9717,-0.9718,-0.9738,-0.9738,-0.9743,-0.9743,-0.9743]}]]